Flag for U.S.A. Weather past 2 weeks in Denver, Colorado, U.S.A.

Now
59 °F

Broken clouds.


Feels Like: 58 °F
Forecast: 33 / 62 °F
Wind: 8 mph from Southeast

Location: Buckley Air Force Base


UV Index: 5 (Moderate)

Visibility: 70 mi


Pressure: 29.97 "Hg

Humidity: 23%

Dew point: 21 °F

Location of DenverLocation

Historic Weather in Denver

°F

Denver temperature yesterday

Maximum temperature yesterday: 54 °F (at 1:55 PM)
Minimum temperature yesterday: 36 °F (at 4:55 AM)
Average temperature yesterday: 45 °F

Past Weeks' High & Low Weather Summary

 TemperatureHumidityPressure
High75 °F (Apr 11, 4:55 PM)100% (Apr 2, 10:55 PM)30.42 "Hg (Apr 2, 10:55 PM)
Low14 °F (Apr 14, 5:55 AM)11% (Apr 11, 4:55 PM)29.51 "Hg (Apr 12, 5:55 PM)
Average45 °F54%29.91 "Hg
* Reported Apr 2 12:55 PM — Apr 17 12:55 PM, Denver, Weather by CustomWeather, © 2014

Note: Actual official high and low records may vary slightly from our data, if they occured in-between our weather recording intervals... More about our weather records

Advertising

Historic Weather Conditions — Data for Previous 24 hours

 ConditionsComfort  
Time TempWeatherWind HumidityBarometerVisibility
12:55 PM
Apr 17
57 °FPartly sunny.6 mph21%29.98 "Hg70 mi
11:55 AM57 °FScattered clouds.6 mph23%29.99 "Hg70 mi
10:55 AM55 °FScattered clouds.10 mph26%30.00 "Hg70 mi
9:55 AM52 °FScattered clouds.15 mph35%30.02 "Hg70 mi
8:55 AM45 °FScattered clouds.9 mph57%30.04 "Hg70 mi
7:55 AM41 °FPassing clouds.16 mph61%30.03 "Hg70 mi
6:55 AM36 °FPassing clouds.17 mph81%30.03 "Hg70 mi
5:55 AM36 °FPassing clouds.20 mph81%29.99 "Hg25 mi
4:55 AM36 °FPassing clouds.22 mph87%29.99 "Hg25 mi
3:55 AM36 °FPassing clouds.15 mph81%30.00 "Hg25 mi
2:55 AM34 °FPassing clouds.15 mph87%30.01 "Hg25 mi
1:55 AM32 °FPassing clouds.9 mph87%30.04 "Hg25 mi
12:55 AM34 °FPartly cloudy.9 mph87%30.05 "Hg10 mi
11:55 PM
Apr 16
37 °FPartly cloudy.8 mph81%30.04 "Hg10 mi
10:55 PM39 °FPassing clouds.10 mph75%30.04 "Hg10 mi
9:55 PM41 °FScattered showers. Overcast.10 mph66%30.04 "Hg10 mi
8:55 PM45 °FScattered showers. Overcast.9 mph42%30.02 "Hg10 mi
7:55 PM45 °FOvercast.7 mph39%30.00 "Hg10 mi
6:55 PM46 °FOvercast.10 mph37%29.95 "Hg10 mi
5:55 PM48 °FOvercast.10 mph34%29.93 "Hg25 mi
4:55 PM50 °FMostly cloudy.10 mph32%29.90 "Hg70 mi
3:55 PM52 °FBroken clouds.20 mph26%29.87 "Hg70 mi
2:55 PM54 °FBroken clouds.14 mph28%29.82 "Hg70 mi
Weather by CustomWeather, © 2014

See weather overview